TimeMST,TemperatureF,Dew PointF,Humidity,Sea Level PressureIn,VisibilityMPH,Wind Direction,Wind SpeedMPH,Gust SpeedMPH,PrecipitationIn,Events,Conditions,WindDirDegrees,DateUTC
12:53 AM,50.0,23.0,35,29.99,10.0,SW,17.3,-,N/A,,Clear,230,2013-11-27 07:53:00
1:53 AM,46.0,23.0,40,30.01,10.0,SW,11.5,-,N/A,,Clear,220,2013-11-27 08:53:00
2:53 AM,46.0,21.9,39,30.03,10.0,SW,9.2,-,N/A,,Clear,230,2013-11-27 09:53:00
3:53 AM,37.0,21.9,54,30.09,10.0,North,5.8,-,N/A,,Clear,360,2013-11-27 10:53:00
4:53 AM,39.0,21.0,49,30.10,10.0,North,6.9,-,N/A,,Clear,360,2013-11-27 11:53:00
5:53 AM,36.0,21.0,55,30.13,10.0,East,4.6,-,N/A,,Clear,80,2013-11-27 12:53:00
6:53 AM,36.0,21.0,55,30.14,10.0,East,4.6,-,N/A,,Clear,90,2013-11-27 13:53:00
7:53 AM,32.0,21.0,64,30.15,10.0,NNE,3.5,-,N/A,,Clear,20,2013-11-27 14:53:00
8:53 AM,30.0,19.9,66,30.19,10.0,North,3.5,-,N/A,,Clear,350,2013-11-27 15:53:00
9:53 AM,39.0,19.9,46,30.17,10.0,NE,4.6,-,N/A,,Clear,40,2013-11-27 16:53:00
10:53 AM,39.0,19.0,45,30.16,10.0,NNE,3.5,-,N/A,,Clear,30,2013-11-27 17:53:00
11:53 AM,41.0,19.9,43,30.14,10.0,ENE,4.6,-,N/A,,Clear,60,2013-11-27 18:53:00
12:53 PM,44.1,19.9,38,30.13,10.0,Calm,Calm,-,N/A,,Clear,0,2013-11-27 19:53:00
1:53 PM,46.0,19.0,34,30.12,10.0,Calm,Calm,-,N/A,,Clear,0,2013-11-27 20:53:00
2:53 PM,46.0,19.0,34,30.11,10.0,NE,3.5,-,N/A,,Clear,50,2013-11-27 21:53:00
3:53 PM,39.0,21.0,49,30.17,10.0,ENE,9.2,-,N/A,,Clear,60,2013-11-27 22:53:00
4:53 PM,33.1,19.9,59,30.18,10.0,ENE,6.9,-,N/A,,Clear,70,2013-11-27 23:53:00
5:53 PM,28.9,21.0,72,30.21,10.0,East,6.9,-,N/A,,Clear,80,2013-11-28 00:53:00
6:53 PM,28.9,21.0,72,30.20,10.0,East,3.5,-,N/A,,Clear,80,2013-11-28 01:53:00
7:53 PM,27.0,21.0,78,30.22,10.0,Calm,Calm,-,N/A,,Clear,0,2013-11-28 02:53:00
8:53 PM,21.9,19.0,89,30.24,10.0,Calm,Calm,-,N/A,,Clear,0,2013-11-28 03:53:00
9:53 PM,21.9,19.0,89,30.21,10.0,West,4.6,-,N/A,,Clear,270,2013-11-28 04:53:00
10:53 PM,19.9,17.1,89,30.22,10.0,WSW,3.5,-,N/A,,Clear,250,2013-11-28 05:53:00
11:53 PM,19.9,17.1,89,30.21,10.0,SSW,6.9,-,N/A,,Clear,210,2013-11-28 06:53:00